Regional Weather Roundup
Issued by NWS Sterling, VA

Home | Current Version | Previous Version | Graphics & Text | Print | Product List | Glossary On
Versions: 1 2 3 4 5 6 7 8 9 10 11 12 13 14 15 16 17 18 19 20 21 22 23 24 25 26 27 28 29 30 31 32 33 34 35 36 37 38 39 40 41 42 43 44 45 46 47 48 49 50
000
ASUS41 KLWX 051210
RWRLWX

REGIONAL WEATHER ROUNDUP
NATIONAL WEATHER SERVICE BALTIMORE MD/WASHINGTON DC
800 AM EDT WED AUG 05 2015

Note: "FAIR" indicates few or no clouds below 12,000 feet
with no significant weather and/or obstructions to visibility.
 TC=TEMPERATURE CELSIUS

 * =Non NWS site. Station does not report precipitation (e.g. rain,
    snow, etc.), thunder, or fog.

DCZ001-MDZ009-015-VAZ040>042-051-053>054-051300-
WASHINGTON METRO

CITY           SKY/WX    TMP DP  RH WIND       PRES   REMARKS
WASHINGTON NAT PTSUNNY   76  68  76 CALM      29.97R
DULLES         PTSUNNY   71  66  84 CALM      29.98R
ANDREWS AFB    PTSUNNY   74  71  89 W3        29.96R
FT BELVOIR     MOSUNNY   71  70  94 NW2       29.97R
QUANTICO       PTSUNNY   73  67  81 NW7       29.98R
COLLEGE PARK*  PTSUNNY   70  70 100 CALM      29.96R
LEESBURG*      PTSUNNY   70  70 100 CALM      29.99R
MANASSAS*      SUNNY     68  68 100 CALM      29.98R
GAITHERSBURG*  CLOUDY    66  64  94 CALM      30.02R

$$

MDZ006>007-011-014-051300-
BALTIMORE METRO

CITY           SKY/WX    TMP DP  RH WIND       PRES   REMARKS
BWI AIRPORT    CLOUDY    70  67  90 W3        29.95R
MD SCIENCE CTR   N/A     75  65  70 MISG      29.96R
MARTIN STATE   PTSUNNY   73  73 100 CALM      29.96R
ANNAPOLIS        N/A     74  69  85 NW3       29.95R
FORT MEADE*    CLOUDY    68  64  88 CALM      29.98S

$$

MDZ012-015-019>023-051300-
MARYLAND EASTERN SHORE

CITY           SKY/WX    TMP DP  RH WIND       PRES   REMARKS
OCEAN CITY       N/A    N/A N/A N/A MISG      29.93R
SALISBURY      PTSUNNY   71  70  96 CALM      29.93S
BAY BRIDGE AP*   N/A     73  72  94 CALM      29.95R
CAMBRIDGE*     CLOUDY    72  70  94 CALM      29.94R
EASTON*        CLOUDY    73  73 100 CALM      29.99R FOG

$$

MDZ017>025-051300-
SOUTHERN MARYLAND

CITY           SKY/WX    TMP DP  RH WIND       PRES   REMARKS
PATUXENT RIVER PTSUNNY   76  73  91 SW5       29.94R
ST INIGOES     NOT AVBL
LEONARDTOWN*   PTSUNNY   73  70  88 CALM      29.97R

$$

MDZ003>005-051300-
NORTH CENTRAL MARYLAND

CITY           SKY/WX    TMP DP  RH WIND       PRES   REMARKS
FREDERICK*     SUNNY     70  70 100 VRB3      30.00R
HAGERSTOWN APT CLOUDY    67  60  78 SE3       29.99R
WESTMINSTER*   CLOUDY    70  63  78 SW3       29.99R

$$

MDZ501>502-051300-
WESTERN MARYLAND

CITY           SKY/WX    TMP DP  RH WIND       PRES   REMARKS
OAKLAND*       CLOUDY    61 N/A N/A W3        30.10R
CUMBERLAND*    CLOUDY    64  61  88 CALM      30.06R

$$

VAZ025>031-051300-
SHENANDOAH VALLEY

CITY           SKY/WX    TMP DP  RH WIND       PRES   REMARKS
WINCHESTER*    CLOUDY    70  64  83 CALM      30.00S
FRONT ROYAL*   FAIR      68  66  94 CALM      30.00S
LURAY*         FAIR      68  66  94 CALM      30.01S
NEW MARKET*    FAIR      67  64  90 CALM      30.01S
STAUNTON*      CLOUDY    71  66  82 CALM      30.05S
WAYNESBORO*    FAIR      70  66  88 CALM      30.05R

$$

WVZ021-048>050-054>055-051300-
EASTERN WEST VIRGINIA PANHANDLE

CITY           SKY/WX    TMP DP  RH WIND       PRES   REMARKS
MARTINSBURG    CLOUDY    68  63  84 SW3       29.99S
PETERSBURG*    CLOUDY    65  63  93 CALM      30.05R FOG

$$

VAZ036>039-050-051300-
CENTRAL FOOTHILLS

CITY           SKY/WX    TMP DP  RH WIND       PRES   REMARKS
CHARLOTTESVILL CLOUDY    71  66  84 CALM      30.00R
CULPEPER*      PTSUNNY   69  67  92 CALM      30.00R
ORANGE*        CLOUDY    72  68  88 CALM      30.01R
GORDONSVILLE*  FAIR      70  66  88 CALM      29.99R
WARRENTON*     FAIR      69  69 100 CALM      29.98R

$$

VAZ055>057-051300-
NORTH AND CENTRAL PIEDMONT

CITY           SKY/WX    TMP DP  RH WIND       PRES   REMARKS
FREDERICKSBRG* PTSUNNY   74  71  91 CALM      29.98R
STAFFORD*      PTSUNNY   69  67  92 CALM      30.02R

$$

NCZ024-NYZ072-PAZ021-071-VAZ022-071-051300-
OTHER REGIONAL OBSERVATIONS

CITY           SKY/WX    TMP DP  RH WIND       PRES   REMARKS
NEW YORK CITY  PTSUNNY   74  58  57 CALM      29.94S
PHILADELPHIA   CLOUDY    74  55  51 NW5       29.94R
PITTSBURGH     MOSUNNY   65  58  78 W6        30.03R
ROANOKE        PTSUNNY   74  65  73 W8        30.08R
RICHMOND       PTSUNNY   79  69  71 NW3       29.97R
RALEIGH        MOSUNNY   77  73  87 CALM      30.01R

$$

ANZ530>537-051300-
MARINE OBSERVATIONS

STATION/POSITION TIME  TEMP    WIND        PRES
                       AIR SEA DIR/SP/G
                 (UTC) (F)     (DEG/KT/KT) (MB)
THOMAS PT LIGHT  NOT AVBL
BALT KEY BRIDGE  1100   75     290/  6/  6 1013.5R
COVE POINT       1100   78      70/  2/  3 1014.3R
LEWISETTA        1100   75 83  310/  4/  4 1013.4R
SOLOMONS ISLAND  1100      83                N/A
PINEY POINT      1100          290/  3/  4   N/A

$$




USA.gov is the U.S. government's official web portal to all federal, state and local government web resources and services.